Home > Weather > Doha > Past weeks

Flag for Qatar Weather for the Past 2 Weeks in Doha, Qatar

Now
93 °F

Clear.


Feels Like: 93 °F
Forecast: 76 / 102 °F
Wind: 16 mph from North

Location: Doha International Airport

Current Time: May 5, 2016 at 4:05:05 PM

Latest Report: May 5, 2016 at 3:00 PM


Visibility: 4 mi

Pressure: 29.71 "Hg

Humidity: 34%

Dew Point: 61 °F

Location of DohaLocation

Historic Weather in Doha — Graph

°F

Doha Temperature Yesterday

Maximum temperature yesterday: 99 °F (at 9:00 AM)
Minimum temperature yesterday: 86 °F (at 9:00 PM)
Average temperature yesterday: 92 °F

High & Low Weather Summary for the Past Weeks

 TemperatureHumidityPressure
High104 °F (May 3, 12:00 PM)70% (Apr 26, 2:00 AM)30.01 "Hg (Apr 26, 2:00 AM)
Low75 °F (Apr 21, 5:30 AM)4% (Apr 23, 10:00 AM)29.65 "Hg (Apr 24, 3:00 PM)
Average87 °F33%29.79 "Hg
* Reported Apr 20 3:00 PM — May 5 3:00 PM, Doha, Weather by CustomWeather, © 2016

Note: Actual official high and low records may vary slightly from our data, if they occured in-between our weather recording intervals... More about our weather records

Advertising

Doha Weather History for the Previous 24 Hours

Scroll right to see more
 ConditionsComfort  
Time TempWeatherWind HumidityBarometerVisibility
3:00 PM
Thu, May 5
93 °FClear.16 mph34%29.71 "Hg4 mi
2:00 PM97 °FClear.8 mph23%29.71 "Hg4 mi
1:00 PM99 °FClear.9 mph16%29.68 "Hg4 mi
12:00 PM99 °FClear.12 mph18%29.71 "Hg4 mi
11:00 AM99 °FClear.5 mph18%29.74 "Hg4 mi
10:00 AM81 °FClear.6 mph23%29.74 "Hg4 mi
9:00 AM95 °FClear.5 mph20%29.74 "Hg4 mi
8:30 AM93 °FClear.3 mph21%29.74 "Hg4 mi
8:00 AM91 °FClear.5 mph28%29.74 "Hg4 mi
7:00 AM90 °FClear.2 mph33%29.74 "Hg5 mi
6:30 AM86 °FClear.2 mph43%29.74 "Hg5 mi
6:00 AM84 °FPassing clouds.3 mph48%29.71 "HgN/A
5:30 AM84 °FPassing clouds.6 mph45%29.71 "HgN/A
5:00 AM84 °FPassing clouds.5 mph45%29.71 "HgN/A
4:30 AM86 °FPassing clouds.3 mph40%29.68 "HgN/A
4:00 AM86 °FPassing clouds.3 mph33%29.68 "HgN/A
3:00 AM86 °FPassing clouds.5 mph29%29.68 "HgN/A
2:00 AM84 °FClear.2 mph33%29.68 "Hg10 mi
1:00 AM86 °FClear.5 mph31%29.68 "Hg10 mi
12:00 AM84 °FClear.2 mph25%29.71 "Hg10 mi
11:00 PM
Wed, May 4
88 °FPassing clouds.5 mph38%29.71 "HgN/A
10:00 PM86 °FClear.3 mph55%29.74 "Hg10 mi
9:30 PM86 °FClear.7 mph52%29.74 "Hg10 mi
9:00 PM86 °FPassing clouds.3 mph46%29.74 "HgN/A
8:00 PM88 °FClear.7 mph49%29.71 "Hg10 mi
7:00 PM90 °FClear.6 mph43%29.71 "Hg10 mi
6:30 PM90 °FClear.5 mph38%29.71 "Hg10 mi
6:00 PM91 °FSunny.6 mph34%29.68 "Hg10 mi
5:30 PM91 °FSunny.7 mph32%29.68 "Hg10 mi
5:00 PM93 °FSunny.9 mph26%29.68 "Hg10 mi
4:30 PM95 °FClear.8 mph22%29.68 "Hg5 mi
4:00 PM93 °FClear.8 mph32%29.68 "Hg5 mi
Weather by CustomWeather, © 2016

See weather overviewHow to use our weather pages